Location: Ahstedt
(52.2048°N, 10.1060°E)
Time: 04:46:38
(UTC+00:00)

Cosmos 2084 - Visible Passes

Search period start: 21 April 2026 00:00
Search period end: 01 May 2026 00:00
Orbit: 542 x 556 km, 62.8° (Epoch: 20 April)

Date Brightness Start Highest point End Pass type
(mag) Time Alt. Az. Time Alt. Az. Time Alt. Az.
21 Apr 3.2 00:51:51 88° ENE 00:51:51 88° ENE 00:55:59 10° NE visible
21 Apr 5.0 02:27:29 11° W 02:30:52 27° NNW 02:34:27 10° NE visible
21 Apr 5.8 23:10:45 13° E 23:10:45 13° E 23:11:23 10° ENE visible
22 Apr 3.3 00:46:23 75° WNW 00:46:31 76° NW 00:50:40 10° NE visible
22 Apr 5.2 02:22:12 10° WNW 02:25:40 25° NNW 02:29:09 10° NE visible
22 Apr 5.6 23:05:15 15° ENE 23:05:15 15° ENE 23:06:19 10° ENE visible
23 Apr 3.5 00:40:53 60° WNW 00:41:13 63° NW 00:45:21 10° NE visible
23 Apr 5.4 02:17:08 10° WNW 02:20:30 23° NNW 02:23:51 10° NE visible
23 Apr 5.4 22:59:42 19° ENE 22:59:42 19° ENE 23:01:10 10° ENE visible
24 Apr 3.8 00:35:20 48° WNW 00:35:57 53° NW 00:40:01 10° NE visible
24 Apr 5.5 02:12:03 10° WNW 02:15:19 22° NNW 02:18:34 10° NE visible
24 Apr 5.1 22:54:06 23° ENE 22:54:06 23° ENE 22:55:58 10° ENE visible
25 Apr 4.2 00:29:43 38° WNW 00:30:41 45° NNW 00:34:41 10° NE visible
25 Apr 5.6 02:06:58 10° WNW 02:10:08 21° N 02:13:18 10° NE visible
25 Apr 4.7 22:48:25 29° ENE 22:48:25 29° ENE 22:50:44 10° NE visible
26 Apr 4.5 00:24:02 29° WNW 00:25:25 39° NNW 00:29:21 10° NE visible
26 Apr 5.7 02:01:53 10° WNW 02:04:58 20° N 02:08:03 10° NE visible
26 Apr 4.3 22:42:40 38° ENE 22:42:40 38° ENE 22:45:27 10° NE visible
27 Apr 4.8 00:18:16 23° WNW 00:20:11 34° NNW 00:24:00 10° NE visible
27 Apr 5.8 01:56:45 10° NW 01:59:47 19° N 02:02:50 10° NE visible
27 Apr 3.7 22:36:47 55° ENE 22:36:47 55° ENE 22:40:09 10° NE visible
28 Apr 5.0 00:12:22 17° WNW 00:14:57 31° NNW 00:18:39 10° NE visible
28 Apr 5.9 01:51:37 10° NW 01:54:37 19° N 01:57:37 10° NE visible
28 Apr 3.2 22:30:44 85° E 22:30:44 85° E 22:34:50 10° NE visible
29 Apr 5.3 00:06:19 11° W 00:09:43 28° NNW 00:13:19 10° NE visible
29 Apr 6.0 01:46:27 10° NW 01:49:27 19° N 01:52:27 10° NE visible
29 Apr 5.2 20:48:54 15° E 20:48:54 15° E 20:50:10 10° ENE visible
29 Apr 3.4 22:24:27 54° WSW 22:25:20 79° NW 22:29:31 10° NE visible
30 Apr 5.5 00:01:01 10° WNW 00:04:30 25° NNW 00:07:59 10° NE visible
30 Apr 6.0 01:41:15 10° NW 01:44:16 19° N 01:47:17 10° NE visible
30 Apr 4.6 20:42:14 23° ESE 20:42:14 23° ESE 20:45:05 10° ENE visible
30 Apr 3.6 22:17:46 25° WSW 22:20:01 65° NW 22:24:10 10° NE visible
